Location: El Portezuelo
(28.4984°N, 16.3589°W)
Time: 10:32:24
(UTC+00:00)

Cosmos 44 Rocket - Pass Details

Date: 20 January 2020
Orbit: 660 x 730 km, 65.1° (Epoch: 19 February)

Event Time Altitude Azimuth Distance (km) Brightness Sun altitude
Exits shadow 06:46:48 - 342° (NNW) 2,262 5.6 -15.7°
Reaches altitude 10° 06:47:16 10° 343° (NNW) 2,087 5.5 -15.6°
Maximum altitude 06:51:55 57° 62° (ENE) 788 3.8 -14.6°
Drops below altitude 10° 06:56:38 10° 141° (SE) 2,111 6.6 -13.6°
Sets 06:59:00 0° 146° (SE) 3,034 7.5 -13.1°
